sat.trackr.live / text

‹ back to catalog

STARLINK-36860

NORAD 67935 · 2026-037D

PAYLOAD ACTIVE UNKNOWN

§ Identity

Operator
Country
US
Launch date
2026-02-24
Launch site
AFETR
Launch vehicle
Mass (kg)
RCS (m²)

Purposes: comms

External: N2YO · Heavens-Above · Gunter

§ Orbital elements

Epoch: 2026-05-25T05:33:30.043008Z

Period
94.27 min
Inclination
43.0014°
Eccentricity
0.0001813
Mean motion
15.27586011 rev/d
Perigee alt
481.8 km
Apogee alt
484.3 km
Semi-major
6,861.2 km
B*
5.3326e-4
RAAN
118.7396°
Arg perigee
275.5171°
Mean anomaly
84.5474°
Rev number
1,504

§ Raw data

STARLINK-368601 67935U 26037D   26145.23159772  .00014444  00000+0  53326-3 0  99902 67935  43.0014 118.7396 0001813 275.5171  84.5474 15.27586011 15048

JSON: /api/v1/satellites/67935 · /tle

For live sub-satellite position, see the globe view (requires WebGL).

§ Visibility from observer

Set your observer location to see the next 7 days of passes ≥ 10°. The values pass through the URL so the page stays shareable.

No JS? Fill the form by hand. The geolocation button needs JavaScript.